Tracking 18984 objects as of 24-Feb-2018
HD Live streaming from Space Station
objects crossing your sky now

INTELSAT 512

Track INTELSAT 512 now!
INTELSAT 512 is classified as:


NORAD ID: 16101
Int'l Code: 1985-087A
Perigee: 36,070.0 km
Apogee: 36,174.9 km
Inclination: 15.5 °
Period: 1,452.9 minutes
Semi major axis: 42493 km
RCS: 6.4863 m2 (large)
Launch date: September 28, 1985
Source: International Telecommunications Satellite Organization (ITSO)
Launch site: AIR FORCE EASTERN TEST RANGE (AFETR)
aabbcc
Your satellite tracking list
Your tracking list is empty




NASA's NSSDC Master Catalog

Two Line Element Set (TLE):
1 16101U 85087A   18054.38317021  .00000011  00000-0  00000+0 0  9991
2 16101  15.4660   9.2369 0012349 271.2352 262.9367  0.99110584100220
Source of the keplerian elements: AFSPC